{"data":{"norad_id":57387,"intl_designator":"2023-100B","name":"STARLING 2","alt_names":[],"object_type":"PAYLOAD","status":"ACTIVE","operator":null,"country":"US","launch_date":"2023-07-18","launch_site_code":"RLLB","launch_vehicle":null,"mission":null,"orbit_class":"UNKNOWN","rcs_meters":null,"size_class":null,"mass_kg":null,"dimensions":null,"purposes":[],"wikipedia_slug":null,"has_3d_model":false,"image_url":null,"decayed_at":null,"tle_current":{"epoch":"2026-09-21T22:18:51.573312Z","epoch_age_seconds":84151,"freshness":"FRESH","line1":"1 57387U 23100B   26264.92976358  .00001195  00000+0  85781-4 0  9993","line2":"2 57387  99.5045 305.2554 0005671 161.1576 198.9856 15.07047929174477","mean_motion":15.07047929,"eccentricity":0.0005671,"inclination_deg":99.5045,"raan_deg":305.2554,"arg_perigee_deg":161.1576,"mean_anomaly_deg":198.9856,"bstar":8.5781e-5,"rev_number":17447,"period_min":95.551042026614,"perigee_km":541.30022095778,"apogee_km":549.15269979454,"semimajor_km":6923.3634603762,"source":"CELESTRAK","updated_at":"2026-09-22T09:00:26.164207Z"}}}